THY3YU LTFM-LTAC

Flight info

Callsign THY3YU
Flight time 0h 39m
Altitude 35000
Route VICEN DCT ASMAP DCT LATGA
Aircraft B738/M-SDE2E3FGHIRWXY/LB1

Departure

Time 2026-02-18 21:55
Airport İstanbul Airport (LTFM)

Arrival

Time 2026-02-18 22:34
Airport Esenboğa International Airport (LTAC)
Time Latitude Longitude Altitude Speed Heading
2026-02-18 21:39 41.26537 28.74351 312 ft 0 kts 269°
2026-02-18 21:45 41.26538 28.74366 312 ft 2 kts 269°
2026-02-18 21:45 41.26538 28.74388 312 ft 2 kts 269°
2026-02-18 21:45 41.26538 28.74410 313 ft 2 kts 269°
2026-02-18 21:46 41.26538 28.74431 313 ft 2 kts 271°
2026-02-18 21:46 41.26536 28.74453 313 ft 2 kts 296°
2026-02-18 21:46 41.26525 28.74463 312 ft 0 kts 355°
2026-02-18 21:49 41.26688 28.74463 311 ft 22 kts 359°
2026-02-18 21:49 41.26870 28.74461 312 ft 31 kts 359°
2026-02-18 21:49 41.27086 28.74457 309 ft 28 kts 354°
2026-02-18 21:50 41.27144 28.74265 308 ft 29 kts 269°
2026-02-18 21:50 41.27139 28.73963 308 ft 36 kts 269°
2026-02-18 21:50 41.27134 28.73595 309 ft 43 kts 269°
2026-02-18 21:50 41.27128 28.73195 306 ft 39 kts 272°
2026-02-18 21:51 41.27256 28.73099 303 ft 26 kts 359°
2026-02-18 21:51 41.27471 28.73097 301 ft 36 kts 359°
2026-02-18 21:51 41.27749 28.73071 292 ft 45 kts 339°
2026-02-18 21:51 41.28041 28.72965 278 ft 45 kts 359°
2026-02-18 21:52 41.28385 28.72959 266 ft 53 kts 359°
2026-02-18 21:52 41.28770 28.72952 261 ft 57 kts 359°
2026-02-18 21:52 41.29179 28.72944 239 ft 53 kts 359°
2026-02-18 21:52 41.29534 28.72937 223 ft 42 kts 359°
2026-02-18 21:53 41.29701 28.72893 221 ft 0 kts 299°
2026-02-18 21:53 41.29713 28.72853 222 ft 10 kts 282°
2026-02-18 21:54 41.29689 28.72728 225 ft 18 kts 221°
2026-02-18 21:54 41.29601 28.72708 228 ft 23 kts 179°
2026-02-18 21:54 41.29275 28.72716 233 ft 89 kts 179°
2026-02-18 21:54 41.28370 28.72719 265 ft 169 kts 181°
2026-02-18 21:55 41.27018 28.72701 640 ft 214 kts 181°
2026-02-18 21:55 41.25416 28.72671 1152 ft 245 kts 181°
2026-02-18 21:55 41.23749 28.73267 2088 ft 251 kts 144°
2026-02-18 21:55 41.22650 28.75047 3216 ft 256 kts 117°
2026-02-18 21:56 41.21950 28.77264 4109 ft 264 kts 110°
2026-02-18 21:56 41.21318 28.79574 5076 ft 268 kts 110°
2026-02-18 21:56 41.20660 28.81910 6050 ft 272 kts 111°
2026-02-18 21:56 41.19958 28.84259 6991 ft 276 kts 112°
2026-02-18 21:57 41.18485 28.89031 8830 ft 283 kts 113°
2026-02-18 21:57 41.17698 28.91449 9729 ft 287 kts 114°
2026-02-18 21:57 41.16877 28.93896 10497 ft 297 kts 114°
2026-02-18 21:58 41.15981 28.96501 10742 ft 324 kts 115°
2026-02-18 21:58 41.15008 28.99280 11291 ft 337 kts 115°
2026-02-18 21:58 41.14000 29.02118 12098 ft 342 kts 115°
2026-02-18 21:58 41.12977 29.04974 12965 ft 344 kts 115°
2026-02-18 21:59 41.11938 29.07858 13766 ft 348 kts 116°
2026-02-18 21:59 41.10883 29.10771 14546 ft 353 kts 116°
2026-02-18 21:59 41.09813 29.13717 15299 ft 357 kts 116°
2026-02-18 21:59 41.08749 29.16640 16178 ft 355 kts 116°
2026-02-18 22:00 41.07681 29.19569 17152 ft 352 kts 116°
2026-02-18 22:00 41.06617 29.22485 18014 ft 351 kts 116°
2026-02-18 22:00 41.05555 29.25391 18844 ft 350 kts 116°
2026-02-18 22:00 41.04492 29.28296 19575 ft 352 kts 116°
2026-02-18 22:01 41.02343 29.34160 20003 ft 365 kts 116°
2026-02-18 22:01 41.01206 29.37258 20018 ft 383 kts 116°
2026-02-18 22:01 41.00015 29.40498 20022 ft 400 kts 116°
2026-02-18 22:02 40.98775 29.43870 20021 ft 415 kts 116°
2026-02-18 22:02 40.97489 29.47361 20022 ft 429 kts 116°
2026-02-18 22:02 40.96162 29.50960 20013 ft 441 kts 116°
2026-02-18 22:02 40.94802 29.54645 20010 ft 450 kts 116°
2026-02-18 22:03 40.93421 29.58382 19999 ft 452 kts 116°
2026-02-18 22:03 40.92046 29.62097 19990 ft 448 kts 116°
2026-02-18 22:03 40.90677 29.65792 19992 ft 447 kts 116°
2026-02-18 22:03 40.89309 29.69477 19994 ft 446 kts 116°
2026-02-18 22:04 40.87943 29.73154 19999 ft 446 kts 116°
2026-02-18 22:04 40.86576 29.76830 20004 ft 446 kts 116°
2026-02-18 22:04 40.85206 29.80508 20000 ft 447 kts 116°
2026-02-18 22:04 40.83831 29.84192 20001 ft 447 kts 116°
2026-02-18 22:05 40.81077 29.91565 20003 ft 448 kts 116°
2026-02-18 22:05 40.79695 29.95255 20002 ft 449 kts 116°
2026-02-18 22:05 40.78312 29.98947 20003 ft 448 kts 116°
2026-02-18 22:06 40.76931 30.02626 20001 ft 448 kts 116°
2026-02-18 22:06 40.75548 30.06306 20000 ft 447 kts 116°
2026-02-18 22:06 40.74185 30.09928 19999 ft 447 kts 116°
2026-02-18 22:06 40.72804 30.13595 20000 ft 446 kts 116°
2026-02-18 22:07 40.71406 30.17305 20001 ft 446 kts 116°
2026-02-18 22:07 40.70025 30.20962 20000 ft 446 kts 116°
2026-02-18 22:07 40.68660 30.24574 20000 ft 446 kts 116°
2026-02-18 22:07 40.67336 30.28262 19995 ft 446 kts 111°
2026-02-18 22:08 40.66389 30.32209 20001 ft 446 kts 103°
2026-02-18 22:08 40.65939 30.36200 20004 ft 447 kts 96°
2026-02-18 22:08 40.65636 30.40324 20005 ft 447 kts 95°
2026-02-18 22:08 40.65347 30.44351 19999 ft 448 kts 95°
2026-02-18 22:09 40.64708 30.52561 20002 ft 448 kts 96°
2026-02-18 22:09 40.64374 30.56584 20001 ft 448 kts 96°
2026-02-18 22:09 40.64030 30.60658 20001 ft 448 kts 96°
2026-02-18 22:10 40.63679 30.64789 20001 ft 448 kts 96°
2026-02-18 22:10 40.63338 30.68806 20001 ft 448 kts 96°
2026-02-18 22:10 40.62874 30.72860 19994 ft 448 kts 103°
2026-02-18 22:10 40.62091 30.76834 20006 ft 450 kts 105°
2026-02-18 22:11 40.61229 30.80791 20005 ft 451 kts 106°
2026-02-18 22:11 40.60345 30.84761 20005 ft 452 kts 106°
2026-02-18 22:11 40.59463 30.88737 20001 ft 453 kts 106°
2026-02-18 22:11 40.58592 30.92712 20002 ft 452 kts 106°
2026-02-18 22:12 40.57731 30.96688 19999 ft 452 kts 106°
2026-02-18 22:12 40.56877 31.00662 19998 ft 451 kts 105°
2026-02-18 22:12 40.56028 31.04630 20000 ft 450 kts 105°
2026-02-18 22:12 40.55182 31.08593 19999 ft 451 kts 105°
2026-02-18 22:13 40.53477 31.16551 20003 ft 453 kts 105°
2026-02-18 22:13 40.52621 31.20535 20006 ft 453 kts 106°
2026-02-18 22:13 40.51762 31.24524 20001 ft 453 kts 106°
2026-02-18 22:14 40.50904 31.28502 20000 ft 453 kts 106°
2026-02-18 22:14 40.50042 31.32484 19998 ft 453 kts 106°
2026-02-18 22:14 40.49181 31.36461 19997 ft 453 kts 106°
2026-02-18 22:14 40.48319 31.40432 20001 ft 452 kts 106°
2026-02-18 22:15 40.47454 31.44406 20001 ft 452 kts 106°
2026-02-18 22:15 40.46589 31.48379 20000 ft 452 kts 106°
2026-02-18 22:15 40.45723 31.52345 20000 ft 452 kts 106°
2026-02-18 22:15 40.44854 31.56319 20000 ft 453 kts 106°
2026-02-18 22:16 40.43984 31.60293 20002 ft 453 kts 106°
2026-02-18 22:16 40.43127 31.64198 19985 ft 435 kts 106°
2026-02-18 22:16 40.42310 31.67916 19981 ft 414 kts 106°
2026-02-18 22:16 40.41531 31.71455 19983 ft 394 kts 106°
2026-02-18 22:17 40.40069 31.78077 19806 ft 366 kts 106°
2026-02-18 22:17 40.39368 31.81249 19557 ft 358 kts 106°
2026-02-18 22:17 40.38675 31.84374 19187 ft 355 kts 106°
2026-02-18 22:18 40.37991 31.87461 18837 ft 351 kts 106°
2026-02-18 22:18 40.37311 31.90522 18478 ft 348 kts 106°
2026-02-18 22:18 40.36636 31.93556 18109 ft 345 kts 106°
2026-02-18 22:18 40.35967 31.96561 17745 ft 342 kts 106°
2026-02-18 22:19 40.35302 31.99546 17382 ft 340 kts 106°
2026-02-18 22:19 40.34641 32.02508 17027 ft 337 kts 106°
2026-02-18 22:19 40.33985 32.05442 16667 ft 335 kts 106°
2026-02-18 22:19 40.33332 32.08359 16311 ft 332 kts 106°
2026-02-18 22:20 40.32854 32.11310 15944 ft 330 kts 98°
2026-02-18 22:20 40.32687 32.14295 15582 ft 328 kts 89°
2026-02-18 22:20 40.32746 32.17270 15232 ft 326 kts 88°
2026-02-18 22:20 40.32843 32.20223 14863 ft 323 kts 87°
2026-02-18 22:21 40.33055 32.26072 14194 ft 319 kts 87°
2026-02-18 22:21 40.33163 32.28961 13856 ft 317 kts 87°
2026-02-18 22:21 40.33271 32.31834 13522 ft 315 kts 87°
2026-02-18 22:22 40.33378 32.34690 13184 ft 313 kts 87°
2026-02-18 22:22 40.33486 32.37527 12853 ft 311 kts 87°
2026-02-18 22:22 40.33592 32.40340 12535 ft 308 kts 87°
2026-02-18 22:22 40.33698 32.43137 12205 ft 306 kts 87°
2026-02-18 22:23 40.33801 32.45875 11883 ft 304 kts 87°
2026-02-18 22:23 40.33906 32.48667 11557 ft 302 kts 87°
2026-02-18 22:23 40.34008 32.51368 11241 ft 300 kts 87°
2026-02-18 22:23 40.34110 32.54085 10916 ft 298 kts 87°
2026-02-18 22:24 40.34213 32.56821 10608 ft 295 kts 87°
2026-02-18 22:24 40.34313 32.59466 10301 ft 294 kts 87°
2026-02-18 22:24 40.34412 32.62117 10112 ft 287 kts 87°
2026-02-18 22:24 40.34509 32.64697 9971 ft 280 kts 87°
2026-02-18 22:25 40.34698 32.69755 9416 ft 276 kts 87°
2026-02-18 22:25 40.34792 32.72258 9141 ft 274 kts 87°
2026-02-18 22:25 40.34885 32.74742 8869 ft 272 kts 87°
2026-02-18 22:26 40.34977 32.77210 8606 ft 270 kts 87°
2026-02-18 22:26 40.35069 32.79657 8358 ft 268 kts 87°
2026-02-18 22:26 40.35159 32.82085 8115 ft 265 kts 87°
2026-02-18 22:26 40.35249 32.84489 7867 ft 263 kts 87°
2026-02-18 22:27 40.35338 32.86869 7631 ft 260 kts 87°
2026-02-18 22:27 40.35425 32.89226 7410 ft 257 kts 87°
2026-02-18 22:27 40.35512 32.91553 7205 ft 254 kts 87°
2026-02-18 22:27 40.35599 32.93877 7013 ft 257 kts 87°
2026-02-18 22:28 40.35686 32.96240 6816 ft 263 kts 87°
2026-02-18 22:28 40.35776 32.98664 6671 ft 268 kts 87°
2026-02-18 22:28 40.35867 33.01106 6627 ft 269 kts 87°
2026-02-18 22:28 40.35956 33.03523 6559 ft 260 kts 87°
2026-02-18 22:29 40.35534 33.07952 6474 ft 243 kts 127°
2026-02-18 22:29 40.34349 33.09552 6511 ft 250 kts 137°
2026-02-18 22:29 40.33070 33.11136 6419 ft 254 kts 137°
2026-02-18 22:30 40.31809 33.12691 6363 ft 244 kts 137°
2026-02-18 22:30 40.30478 33.13958 6302 ft 232 kts 163°
2026-02-18 22:30 40.28927 33.13942 6302 ft 224 kts 201°
2026-02-18 22:30 40.27483 33.13084 6262 ft 232 kts 208°
2026-02-18 22:31 40.26071 33.12052 6150 ft 230 kts 212°
2026-02-18 22:31 40.24721 33.10859 5726 ft 237 kts 217°
2026-02-18 22:31 40.23393 33.09571 5414 ft 238 kts 217°
2026-02-18 22:31 40.22070 33.08286 5105 ft 235 kts 217°
2026-02-18 22:32 40.20768 33.07033 4789 ft 229 kts 217°
2026-02-18 22:32 40.19510 33.05822 4484 ft 218 kts 217°
2026-02-18 22:32 40.18344 33.04699 4227 ft 197 kts 217°
2026-02-18 22:32 40.17293 33.03686 3954 ft 177 kts 217°
2026-02-18 22:33 40.15525 33.01983 3527 ft 143 kts 217°
2026-02-18 22:33 40.14727 33.01213 3349 ft 143 kts 217°
2026-02-18 22:33 40.13924 33.00440 3164 ft 143 kts 217°
2026-02-18 22:34 40.13195 32.99729 3135 ft 96 kts 217°
2026-02-18 22:34 40.12804 32.99448 3135 ft 50 kts 186°
2026-02-18 22:34 40.12604 32.99540 3135 ft 26 kts 104°
2026-02-18 22:34 40.12567 32.99698 3135 ft 10 kts 161°
2026-02-18 22:35 40.12503 32.99656 3135 ft 11 kts 213°
2026-02-18 22:35 40.12419 32.99584 3135 ft 18 kts 213°
2026-02-18 22:35 40.12292 32.99473 3135 ft 25 kts 213°
2026-02-18 22:35 40.12131 32.99327 3135 ft 31 kts 218°
2026-02-18 22:36 40.11946 32.99140 3135 ft 36 kts 216°
2026-02-18 22:36 40.11786 32.99080 3135 ft 22 kts 137°
2026-02-18 22:36 40.11648 32.99153 3135 ft 22 kts 149°
2026-02-18 22:36 40.11638 32.99161 3135 ft 0 kts 149°